Location: Cabeza de los Veneras
(40.2000°N, 5.2000°W)
Time: 12:08:17
(UTC+00:00)

IRS-1C Rocket - Pass Details

Date: 18 April 2024
Orbit: 799 x 806 km, 98.8° (Epoch: 21 May)

Event Time Altitude Azimuth Distance (km) Brightness Sun altitude
Exits shadow 21:23:39 52° 184° (S) 998 4.3 -24.4°
Maximum altitude 21:24:57 77° 257° (WSW) 831 4.1 -24.5°
Drops below altitude 10° 21:30:15 10° 343° (NNW) 2,394 7.3 -25.3°
Sets 21:32:36 0° 345° (NNW) 3,329 8.2 -25.6°
